Time,TemperatureF,DewpointF,PressureIn,WindDirection,WindDirectionDegrees,WindSpeedMPH,WindSpeedGustMPH,Humidity,HourlyPrecipIn,Conditions,Clouds,dailyrainin,SoftwareType,DateUTC
2013-01-10 00:10:00,31.2,30.0,29.88,ENE,63,1.0,2.0,95,0.00,,,0.02,weatherlink.com 1.10,2013-01-10 09:10:00,
2013-01-10 00:25:00,31.4,30.0,29.89,ENE,63,1.0,2.0,95,0.01,,,0.03,weatherlink.com 1.10,2013-01-10 09:25:00,
2013-01-10 00:40:00,31.5,30.0,29.90,ENE,63,0.0,2.0,95,0.01,,,0.00,weatherlink.com 1.10,2013-01-10 09:40:00,
2013-01-10 00:55:00,31.6,30.0,29.91,ENE,63,0.0,0.0,95,0.01,,,0.00,weatherlink.com 1.10,2013-01-10 09:55:00,
2013-01-10 01:10:00,31.8,31.0,29.91,ENE,63,0.0,2.0,95,0.01,,,0.00,weatherlink.com 1.10,2013-01-10 10:10:00,
2013-01-10 01:25:00,31.6,30.0,29.91,ENE,63,2.0,3.0,95,0.00,,,0.00,weatherlink.com 1.10,2013-01-10 10:25:00,
2013-01-10 01:40:00,31.4,30.0,29.91,ENE,63,1.0,3.0,95,0.00,,,0.00,weatherlink.com 1.10,2013-01-10 10:40:00,
2013-01-10 01:55:00,31.5,31.0,29.91,ENE,63,0.0,1.0,96,0.00,,,0.00,weatherlink.com 1.10,2013-01-10 10:55:00,
2013-01-10 02:10:00,31.4,30.0,29.92,ENE,63,1.0,2.0,95,0.00,,,0.00,weatherlink.com 1.10,2013-01-10 11:10:00,
2013-01-10 02:25:00,31.0,30.0,29.93,ENE,63,1.0,3.0,95,0.00,,,0.00,weatherlink.com 1.10,2013-01-10 11:25:00,
2013-01-10 02:40:00,30.7,30.0,29.93,ENE,63,0.0,3.0,95,0.00,,,0.00,weatherlink.com 1.10,2013-01-10 11:40:00,
2013-01-10 02:55:00,30.7,30.0,29.94,ENE,63,0.0,2.0,95,0.00,,,0.00,weatherlink.com 1.10,2013-01-10 11:55:00,
2013-01-10 03:10:00,30.9,30.0,29.95,ENE,63,0.0,3.0,96,0.00,,,0.00,weatherlink.com 1.10,2013-01-10 12:10:00,
2013-01-10 03:25:00,31.4,30.0,29.95,WSW,243,1.0,4.0,95,0.00,,,0.00,weatherlink.com 1.10,2013-01-10 12:25:00,
2013-01-10 03:40:00,31.3,30.0,29.96,WSW,252,1.0,3.0,95,0.00,,,0.00,weatherlink.com 1.10,2013-01-10 12:40:00,
2013-01-10 03:55:00,31.0,30.0,29.96,West,259,3.0,4.0,96,0.00,,,0.00,weatherlink.com 1.10,2013-01-10 12:55:00,
2013-01-10 04:10:00,30.8,30.0,29.97,WSW,247,1.0,3.0,96,0.00,,,0.00,weatherlink.com 1.10,2013-01-10 13:10:00,
2013-01-10 04:26:00,30.2,29.0,29.98,SW,225,3.0,4.0,96,0.00,,,0.00,weatherlink.com 1.10,2013-01-10 13:26:00,
2013-01-10 04:40:00,29.9,29.0,29.98,SW,236,2.0,4.0,96,0.00,,,0.00,weatherlink.com 1.10,2013-01-10 13:40:00,
2013-01-10 04:55:00,29.9,29.0,29.98,South,188,0.0,2.0,97,0.00,,,0.00,weatherlink.com 1.10,2013-01-10 13:55:00,
2013-01-10 05:10:00,29.9,29.0,29.98,South,188,1.0,2.0,97,0.00,,,0.00,weatherlink.com 1.10,2013-01-10 14:10:00,
2013-01-10 05:25:00,29.9,29.0,29.98,South,188,1.0,4.0,97,0.00,,,0.00,weatherlink.com 1.10,2013-01-10 14:25:00,
2013-01-10 05:40:00,29.7,29.0,29.99,South,189,4.0,5.0,97,0.00,,,0.00,weatherlink.com 1.10,2013-01-10 14:40:00,
2013-01-10 05:55:00,29.6,29.0,30.00,SSW,198,0.0,5.0,97,0.00,,,0.00,weatherlink.com 1.10,2013-01-10 14:55:00,
2013-01-10 06:10:00,29.4,29.0,30.00,SW,236,0.0,3.0,97,0.00,,,0.00,weatherlink.com 1.10,2013-01-10 15:10:00,
2013-01-10 06:26:00,29.2,29.0,30.00,SW,217,1.0,3.0,97,0.00,,,0.00,weatherlink.com 1.10,2013-01-10 15:26:00,
2013-01-10 06:41:00,28.8,28.0,30.00,WSW,240,0.0,2.0,97,0.00,,,0.00,weatherlink.com 1.10,2013-01-10 15:41:00,
2013-01-10 06:56:00,28.6,28.0,30.00,WNW,284,0.0,2.0,97,0.00,,,0.00,weatherlink.com 1.10,2013-01-10 15:56:00,
2013-01-10 07:11:00,28.6,28.0,30.01,WNW,284,0.0,2.0,97,0.00,,,0.00,weatherlink.com 1.10,2013-01-10 16:11:00,
2013-01-10 07:26:00,28.3,27.0,30.02,West,262,1.0,3.0,96,0.00,,,0.00,weatherlink.com 1.10,2013-01-10 16:26:00,
2013-01-10 07:41:00,27.8,27.0,30.02,NW,313,1.0,2.0,96,0.00,,,0.00,weatherlink.com 1.10,2013-01-10 16:41:00,
2013-01-10 07:56:00,27.9,27.0,30.03,South,175,0.0,3.0,97,0.00,,,0.00,weatherlink.com 1.10,2013-01-10 16:56:00,
2013-01-10 08:12:00,27.4,26.0,30.04,South,175,0.0,0.0,96,0.00,,,0.00,weatherlink.com 1.10,2013-01-10 17:12:00,
2013-01-10 08:41:00,27.4,26.0,30.05,South,175,0.0,0.0,96,0.00,,,0.00,weatherlink.com 1.10,2013-01-10 17:41:00,
2013-01-10 08:56:00,27.3,26.0,30.06,West,266,0.0,2.0,96,0.00,,,0.00,weatherlink.com 1.10,2013-01-10 17:56:00,
2013-01-10 09:11:00,26.9,26.0,30.06,West,269,0.0,3.0,96,0.00,,,0.00,weatherlink.com 1.10,2013-01-10 18:11:00,
2013-01-10 09:41:00,25.8,25.0,30.07,NW,323,0.0,1.0,96,0.00,,,0.00,weatherlink.com 1.10,2013-01-10 18:41:00,
2013-01-10 09:56:00,25.9,25.0,30.07,NNE,29,0.0,2.0,96,0.00,,,0.00,weatherlink.com 1.10,2013-01-10 18:56:00,
2013-01-10 10:11:00,26.4,26.0,30.07,NE,49,1.0,2.0,97,0.00,,,0.00,weatherlink.com 1.10,2013-01-10 19:11:00,
2013-01-10 10:26:00,26.6,26.0,30.07,NE,49,0.0,2.0,96,0.00,,,0.00,weatherlink.com 1.10,2013-01-10 19:26:00,
2013-01-10 10:41:00,27.0,26.0,30.07,NE,49,0.0,1.0,97,0.00,,,0.00,weatherlink.com 1.10,2013-01-10 19:41:00,
2013-01-10 10:56:00,27.3,26.0,30.09,NE,49,0.0,2.0,96,0.00,,,0.00,weatherlink.com 1.10,2013-01-10 19:56:00,
2013-01-10 11:11:00,27.3,26.0,30.09,NE,53,2.0,2.0,96,0.00,,,0.00,weatherlink.com 1.10,2013-01-10 20:11:00,
2013-01-10 11:26:00,27.3,26.0,30.10,SSW,205,0.0,3.0,96,0.00,,,0.00,weatherlink.com 1.10,2013-01-10 20:26:00,
2013-01-10 11:41:00,27.4,26.0,30.10,SW,224,2.0,4.0,96,0.00,,,0.00,weatherlink.com 1.10,2013-01-10 20:41:00,
2013-01-10 11:56:00,27.5,27.0,30.11,WSW,237,3.0,3.0,97,0.00,,,0.00,weatherlink.com 1.10,2013-01-10 20:56:00,
2013-01-10 12:11:00,27.4,26.0,30.11,WSW,237,0.0,2.0,96,0.00,,,0.00,weatherlink.com 1.10,2013-01-10 21:11:00,
2013-01-10 12:26:00,27.5,27.0,30.11,WSW,237,0.0,2.0,96,0.00,,,0.00,weatherlink.com 1.10,2013-01-10 21:26:00,
2013-01-10 12:41:00,27.2,26.0,30.11,WSW,237,0.0,2.0,96,0.00,,,0.00,weatherlink.com 1.10,2013-01-10 21:41:00,
2013-01-10 12:59:00,27.2,26.0,30.10,WSW,240,0.0,1.0,96,0.00,,,0.00,weatherlink.com 1.10,2013-01-10 21:59:00,
2013-01-10 13:11:00,27.2,26.0,30.09,SW,236,0.0,1.0,96,0.00,,,0.00,weatherlink.com 1.10,2013-01-10 22:11:00,
2013-01-10 13:26:00,27.4,26.0,30.09,SW,236,0.0,0.0,96,0.00,,,0.00,weatherlink.com 1.10,2013-01-10 22:26:00,
2013-01-10 13:41:00,27.2,26.0,30.09,SW,236,0.0,1.0,95,0.00,,,0.00,weatherlink.com 1.10,2013-01-10 22:41:00,
2013-01-10 13:56:00,26.2,25.0,30.08,NNW,335,1.0,2.0,95,0.00,,,0.00,weatherlink.com 1.10,2013-01-10 22:56:00,
2013-01-10 14:11:00,25.7,25.0,30.08,NNW,335,2.0,2.0,95,0.00,,,0.00,weatherlink.com 1.10,2013-01-10 23:11:00,
2013-01-10 14:26:00,25.7,25.0,30.08,NNW,348,0.0,2.0,95,0.00,,,0.00,weatherlink.com 1.10,2013-01-10 23:26:00,
2013-01-10 14:41:00,25.4,24.0,30.08,North,9,1.0,3.0,95,0.00,,,0.00,weatherlink.com 1.10,2013-01-10 23:41:00,
2013-01-10 14:56:00,25.4,24.0,30.08,North,360,0.0,3.0,95,0.00,,,0.00,weatherlink.com 1.10,2013-01-10 23:56:00,
2013-01-10 15:11:00,25.3,24.0,30.08,North,360,0.0,2.0,95,0.00,,,0.00,weatherlink.com 1.10,2013-01-11 00:11:00,
2013-01-10 15:26:00,25.4,24.0,30.08,North,360,1.0,2.0,95,0.00,,,0.00,weatherlink.com 1.10,2013-01-11 00:26:00,
2013-01-10 15:41:00,25.3,24.0,30.08,North,360,1.0,2.0,95,0.00,,,0.00,weatherlink.com 1.10,2013-01-11 00:41:00,
2013-01-10 15:56:00,25.3,24.0,30.07,North,10,1.0,3.0,95,0.00,,,0.00,weatherlink.com 1.10,2013-01-11 00:56:00,
2013-01-10 16:11:00,25.5,24.0,30.06,NNE,14,1.0,4.0,95,0.00,,,0.00,weatherlink.com 1.10,2013-01-11 01:11:00,
2013-01-10 16:26:00,26.2,25.0,30.06,NNE,12,1.0,4.0,95,0.00,,,0.00,weatherlink.com 1.10,2013-01-11 01:26:00,
2013-01-10 16:41:00,26.9,26.0,30.05,NNE,30,1.0,5.0,95,0.00,,,0.00,weatherlink.com 1.10,2013-01-11 01:41:00,
2013-01-10 16:56:00,26.6,25.0,30.05,NNE,22,2.0,3.0,94,0.00,,,0.00,weatherlink.com 1.10,2013-01-11 01:56:00,
2013-01-10 17:11:00,25.8,24.0,30.06,North,360,2.0,3.0,94,0.00,,,0.00,weatherlink.com 1.10,2013-01-11 02:11:00,
2013-01-10 17:26:00,26.0,25.0,30.06,North,360,1.0,2.0,94,0.00,,,0.00,weatherlink.com 1.10,2013-01-11 02:26:00,
2013-01-10 17:57:00,26.4,25.0,30.04,North,5,3.0,4.0,94,0.00,,,0.00,weatherlink.com 1.10,2013-01-11 02:57:00,
2013-01-10 18:12:00,26.7,25.0,30.03,North,5,3.0,4.0,94,0.00,,,0.00,weatherlink.com 1.10,2013-01-11 03:12:00,
2013-01-10 18:27:00,26.8,25.0,30.02,North,5,2.0,5.0,93,0.00,,,0.00,weatherlink.com 1.10,2013-01-11 03:27:00,
2013-01-10 18:42:00,26.9,25.0,30.02,NNE,19,5.0,5.0,93,0.00,,,0.00,weatherlink.com 1.10,2013-01-11 03:42:00,
2013-01-10 18:57:00,26.8,25.0,30.01,North,5,1.0,4.0,93,0.00,,,0.00,weatherlink.com 1.10,2013-01-11 03:57:00,
2013-01-10 19:12:00,27.6,26.0,30.00,NNE,22,2.0,8.0,93,0.00,,,0.00,weatherlink.com 1.10,2013-01-11 04:12:00,
2013-01-10 19:27:00,28.1,26.0,29.99,NE,53,3.0,5.0,92,0.00,,,0.00,weatherlink.com 1.10,2013-01-11 04:27:00,
2013-01-10 19:42:00,28.4,26.0,29.98,NNE,27,4.0,7.0,91,0.00,,,0.00,weatherlink.com 1.10,2013-01-11 04:42:00,
2013-01-10 19:57:00,28.5,26.0,29.96,NE,48,3.0,9.0,90,0.00,,,0.00,weatherlink.com 1.10,2013-01-11 04:57:00,
2013-01-10 20:27:00,28.6,26.0,29.95,NE,37,3.0,8.0,89,0.00,,,0.00,weatherlink.com 1.10,2013-01-11 05:27:00,
2013-01-10 20:42:00,28.8,26.0,29.95,NE,47,4.0,8.0,89,0.00,,,0.00,weatherlink.com 1.10,2013-01-11 05:42:00,
2013-01-10 20:57:00,29.0,26.0,29.94,NNE,22,5.0,8.0,89,0.00,,,0.00,weatherlink.com 1.10,2013-01-11 05:57:00,
2013-01-10 21:12:00,29.3,26.0,29.93,ENE,57,3.0,7.0,88,0.00,,,0.00,weatherlink.com 1.10,2013-01-11 06:12:00,
2013-01-10 21:27:00,29.4,26.0,29.92,ENE,60,2.0,7.0,88,0.00,,,0.00,weatherlink.com 1.10,2013-01-11 06:27:00,
2013-01-10 21:42:00,29.5,26.0,29.92,NE,47,2.0,5.0,88,0.00,,,0.00,weatherlink.com 1.10,2013-01-11 06:42:00,
2013-01-10 21:57:00,30.5,27.0,29.91,East,92,5.0,7.0,86,0.00,,,0.00,weatherlink.com 1.10,2013-01-11 06:57:00,
2013-01-10 22:12:00,31.2,27.0,29.91,ENE,63,3.0,7.0,84,0.00,,,0.00,weatherlink.com 1.10,2013-01-11 07:12:00,
2013-01-10 22:27:00,31.5,27.0,29.90,NE,49,4.0,7.0,84,0.00,,,0.00,weatherlink.com 1.10,2013-01-11 07:27:00,
2013-01-10 22:42:00,31.7,27.0,29.89,NE,55,4.0,7.0,84,0.00,,,0.00,weatherlink.com 1.10,2013-01-11 07:42:00,
2013-01-10 22:58:00,32.5,28.0,29.89,East,97,8.0,11.0,82,0.00,,,0.00,weatherlink.com 1.10,2013-01-11 07:58:00,
2013-01-10 23:12:00,33.0,28.0,29.88,NE,55,5.0,14.0,81,0.00,,,0.00,weatherlink.com 1.10,2013-01-11 08:12:00,
2013-01-10 23:27:00,33.2,28.0,29.88,ENE,57,3.0,11.0,80,0.00,,,0.00,weatherlink.com 1.10,2013-01-11 08:27:00,
2013-01-10 23:42:00,32.6,28.0,29.88,ENE,75,8.0,9.0,83,0.00,,,0.00,weatherlink.com 1.10,2013-01-11 08:42:00,
2013-01-10 23:58:00,33.3,28.0,29.87,ENE,76,13.0,16.0,82,0.00,,,0.00,weatherlink.com 1.10,2013-01-11 08:58:00,